Вернуться в каталог

STARLINK-35836

АктивенСвязьVLEO
NORAD 66571·PAYLOAD·🇺🇸 United States

Запущен Nov 21, 2025 с Cape Canaveral Space Force Station

Loading…

Ближайшие Пролёты (ближайшие 24 часа)

TLE

СвежийSource: CelesTrak SupGP

Эпоха: Sep 15, 2026, 02:49 UTC

1 66571C 25268Q   26258.11784722  .00034774  00000+0  12596-2 0  2580
2 66571  43.0016 357.6636 0001551 261.8292 175.9551 15.27558834    11

Отслеживайте STARLINK-35836 в реальном времени с AllMySat

Download on the App Store